Theta_e
312 312 313 312 312 312 313 314 314 314 314 315 316 316 318 319 318 308 302 311 314 321 321 308 306 305 303 299 300 298 288 285 286 287 289 294 294 296 299 295 297 300 315 313 321
312 312 312 312 312 312 313 314 314 314 314 315 316 316 318 318 310 304 311 319 320 321 307 303 301 303 298 297 297 292 286 288 292 292 292 295 295 295 294 295 294 299 303 303 303
311 312 312 312 312 312 313 313 313 314 314 315 315 316 317 316 303 303 316 319 320 319 310 305 305 303 297 297 296 294 287 293 294 298 298 296 295 297 295 292 293 296 299 302 300
311 311 312 312 312 313 313 313 313 313 314 315 315 317 318 310 292 306 318 318 320 312 308 304 302 297 294 293 297 289 295 296 298 299 297 295 297 295 294 295 299 299 301 300 299
311 311 312 312 313 313 313 312 313 313 314 314 316 317 310 299 299 310 317 314 309 308 304 302 299 297 293 294 295 292 294 297 298 298 297 298 295 294 294 298 300 302 304 302 304
312 311 312 312 312 312 312 312 313 313 313 314 316 317 304 294 308 310 309 309 307 306 304 304 301 301 297 296 294 295 296 295 297 297 297 295 294 295 296 299 298 299 299 300 301
313 312 312 312 312 311 312 312 313 313 313 314 316 312 302 298 306 307 309 307 307 306 303 305 305 299 297 294 298 296 291 293 294 296 295 296 291 292 296 297 296 296 296 298 300
314 313 312 312 312 311 311 312 312 313 313 314 315 307 297 307 304 307 308 306 308 309 307 307 307 301 297 298 295 290 288 284 293 295 296 293 284 294 297 295 294 295 296 297 298
314 313 312 312 311 311 311 311 312 312 314 314 305 301 295 310 303 305 305 304 305 307 307 309 304 298 297 289 284 286 279 284 287 295 293 291 288 296 298 295 292 292 294 295 296
313 313 312 311 311 310 311 311 311 308 310 311 307 295 299 297 302 304 305 306 302 302 302 301 296 290 287 284 275 278 279 283 283 291 292 289 291 295 294 293 292 293 293 294 295
314 313 312 311 310 310 306 301 296 295 298 293 295 295 298 302 305 303 305 302 302 298 289 295 288 280 285 288 289 286 285 282 286 291 291 291 291 291 292 293 292 292 293 293 294
314 313 311 310 309 309 303 296 295 297 289 297 298 298 300 301 297 300 304 296 295 289 292 287 285 290 291 290 289 287 282 281 287 291 292 291 286 289 292 292 293 293 293 293 295
314 313 311 309 308 301 297 298 303 301 291 294 298 297 298 300 295 296 300 297 292 289 288 285 288 291 289 287 287 283 279 281 283 289 291 286 286 286 289 292 294 294 295 296 295
314 312 310 307 300 297 293 300 302 301 282 288 292 296 298 298 293 301 301 297 293 288 288 286 290 288 286 286 286 281 289 287 286 288 281 287 276 281 285 288 291 292 293 294 296
313 312 309 304 296 295 297 299 300 295 274 290 291 300 298 294 295 296 300 297 290 290 287 283 286 285 285 287 287 284 289 287 285 287 287 279 277 275 285 285 288 291 293 293 295
313 312 308 301 299 299 301 300 295 280 273 284 291 290 291 293 294 296 295 297 295 289 288 287 290 288 287 289 288 290 287 288 286 288 278 275 274 272 281 285 287 291 293 292 293
312 310 304 302 295 300 301 294 278 273 285 282 284 290 289 288 291 290 289 287 285 279 281 285 285 288 289 285 288 287 282 272 271 269 273 280 277 276 283 287 287 289 290 292 293
311 309 303 303 301 300 294 282 271 277 279 287 288 288 285 287 286 288 286 283 287 285 281 279 277 285 289 285 283 283 282 274 268 271 273 281 274 278 287 289 289 289 288 290 290
308 299 299 301 301 298 287 272 278 279 285 285 286 282 281 286 286 285 284 284 286 287 280 280 280 287 288 288 286 283 280 285 280 275 277 276 280 285 287 285 285 285 286 287 289
299 297 297 302 299 294 281 278 279 287 287 286 281 283 279 281 282 283 282 285 286 288 288 284 278 284 286 287 287 284 287 278 276 267 268 276 276 278 283 283 283 283 283 285 286
297 291 297 301 297 287 274 276 283 286 288 285 281 282 282 282 281 281 282 284 288 287 288 286 282 280 284 282 281 283 282 283 281 279 275 273 276 282 284 284 282 283 284 284 285
294 285 298 297 284 274 276 282 285 283 288 286 286 282 283 284 282 281 282 284 290 289 284 287 283 275 279 284 286 285 283 283 276 275 277 278 276 286 285 284 283 283 284 285 285
288 287 297 293 275 276 277 281 281 283 284 285 284 286 286 284 279 283 284 288 290 288 285 286 274 267 274 280 284 283 284 285 283 281 277 274 275 285 283 282 283 283 283 284 285
288 282 287 289 284 279 277 276 275 283 284 286 284 286 284 282 283 282 284 287 288 289 293 290 280 276 272 277 280 279 281 283 282 275 277 278 277 281 281 281 282 282 283 283 284
288 284 286 279 281 282 282 279 276 276 282 285 283 284 283 280 281 282 284 284 286 291 288 286 272 277 280 281 281 281 281 281 280 282 277 278 279 282 283 282 282 283 283 284 284
286 285 286 281 284 284 283 278 279 279 281 280 279 284 284 281 282 280 283 283 282 285 285 285 272 275 271 279 279 277 280 281 281 281 281 281 281 286 286 282 281 283 283 283 284
293 293 290 285 284 282 279 281 281 282 282 284 284 282 282 284 286 285 287 286 285 284 283 281 274 267 266 273 271 270 274 278 280 280 282 278 283 285 282 284 283 283 284 283 284
Wind_Speed
7 8 9 9 9 10 11 12 13 13 14 14 15 15 14 15 11 6 6 5 8 15 14 8 6 9 3 4 4 3 4 2 2 2 7 6 7 3 6 3 6 7 4 2 8
6 7 9 9 9 10 11 12 13 13 14 14 15 14 14 13 2 7 4 10 12 14 8 7 8 8 4 3 5 5 3 1 4 2 4 5 6 6 4 6 5 13 17 9 9
5 7 8 9 10 11 12 12 13 14 14 15 15 13 12 8 2 3 7 11 13 13 4 3 2 1 5 4 5 4 1 4 1 3 5 7 6 6 8 4 1 13 19 13 5
5 7 8 9 11 12 13 14 14 14 15 15 14 13 14 1 2 2 7 9 11 8 7 7 6 4 4 3 3 2 4 2 4 6 5 6 6 6 1 5 12 11 13 9 8
5 6 8 9 11 12 13 14 14 15 15 14 13 12 4 5 1 2 6 8 4 4 7 4 7 2 4 1 2 3 3 5 7 7 5 4 5 4 5 9 8 9 15 13 13
6 6 7 9 11 13 14 15 15 16 15 12 11 11 2 3 2 1 4 4 6 5 7 7 3 2 3 2 3 2 5 5 3 6 2 6 5 2 8 9 12 13 12 12 11
7 7 7 9 11 13 15 16 16 15 11 8 8 3 3 2 3 4 3 2 3 2 3 3 4 2 1 2 1 2 5 5 0 5 3 8 4 7 6 8 10 11 10 13 12
9 7 7 9 11 12 15 16 16 12 7 7 6 2 2 1 2 2 4 2 3 3 2 2 4 2 1 1 3 4 4 5 5 7 3 3 3 7 8 9 13 15 15 14 15
10 7 7 8 11 13 15 17 14 8 8 6 2 2 1 2 1 2 2 2 3 1 2 1 3 2 4 3 5 6 1 3 8 3 4 5 5 4 10 9 10 14 15 14 16
8 7 6 8 11 13 15 13 6 6 3 2 2 2 1 0 2 2 1 1 2 3 3 5 4 3 4 4 2 3 1 2 3 6 5 4 4 8 10 10 12 13 15 14 16
9 8 6 7 10 12 8 4 4 2 3 0 1 1 1 4 1 1 1 3 2 2 3 3 5 1 3 1 4 3 2 4 4 3 4 6 4 9 10 13 14 15 14 15 18
9 8 6 6 9 11 1 3 1 1 3 1 3 2 1 1 2 2 1 2 2 2 1 5 0 4 3 3 3 4 1 5 5 2 2 5 2 5 7 11 12 14 11 13 17
10 9 6 5 8 3 2 4 1 2 1 2 3 1 1 1 0 3 1 1 2 0 2 3 3 1 1 3 2 2 4 2 3 5 1 6 2 7 10 4 13 12 10 9 14
11 10 7 2 3 1 1 2 2 1 5 2 2 1 1 0 1 1 1 1 1 0 1 3 1 1 3 2 1 5 6 4 2 5 4 3 6 2 9 11 15 14 14 11 14
12 11 8 4 2 2 3 2 2 2 4 3 2 2 1 2 2 2 1 1 1 1 2 1 2 1 1 2 1 7 2 3 2 5 2 3 1 6 6 13 15 13 14 14 16
13 12 8 3 1 1 3 3 4 9 8 3 3 3 2 2 2 1 1 2 1 1 1 5 2 2 3 3 3 4 3 5 2 2 3 5 4 6 5 4 7 10 10 12 14
15 13 7 3 3 5 3 3 7 5 4 4 4 4 4 4 3 3 1 1 2 3 2 2 1 1 0 3 2 6 4 5 7 4 5 2 3 7 6 4 2 6 7 6 7
17 12 3 2 4 4 3 7 4 3 6 3 4 3 4 4 3 3 3 1 0 2 2 2 5 3 1 2 2 2 4 6 4 3 5 2 2 5 4 2 1 3 5 7 6
19 2 3 3 4 3 5 4 9 8 6 8 4 3 3 3 4 2 5 4 3 2 5 3 3 0 1 2 3 2 3 5 1 1 2 2 3 5 4 1 4 5 5 6 7
6 4 3 6 5 4 5 7 5 4 5 3 6 6 6 4 4 5 3 3 4 2 1 1 2 1 1 1 1 2 3 4 3 2 5 4 3 4 5 5 1 4 5 5 5
4 4 2 4 3 4 5 8 5 5 3 6 7 6 5 6 6 5 6 2 4 3 2 1 3 3 0 1 4 2 2 1 3 4 2 4 5 5 8 8 6 4 4 4 4
5 5 3 3 3 1 4 7 3 5 1 2 4 4 8 8 5 4 7 3 6 5 5 1 3 3 4 5 2 2 5 4 4 3 3 2 7 1 7 8 7 4 4 4 5
6 4 2 2 6 4 3 3 3 5 6 6 7 4 3 7 4 4 5 0 6 5 6 5 2 3 9 6 3 4 5 4 3 3 6 3 6 2 5 6 6 7 4 3 5
6 6 3 2 2 7 7 5 5 3 4 4 5 4 4 3 1 6 4 3 3 3 5 3 3 6 6 2 0 4 4 5 6 3 3 7 3 5 7 8 7 6 5 4 4
4 5 6 10 12 6 7 12 8 7 4 3 3 6 8 5 3 5 4 3 1 4 4 4 4 3 5 7 4 6 7 8 9 8 7 4 7 7 13 12 10 8 6 6 5
8 7 3 4 10 14 11 11 14 5 10 6 5 11 8 8 9 10 8 5 6 3 6 3 3 3 5 5 5 9 11 13 14 11 12 9 15 8 6 7 7 9 8 7 6
3 3 4 10 10 14 10 9 15 12 6 5 12 7 7 6 5 0 2 6 8 9 7 6 6 4 6 5 6 11 14 19 9 7 15 14 14 4 5 13 15 12 11 9 8
Wind_Direction
355 351 352 351 350 348 347 345 344 343 342 340 340 338 341 342 341 33 39 310 316 323 327 301 349 356 38 28 22 85 63 202 266 10 289 353 12 325 298 314 312 2 52 29 329
348 348 347 347 346 343 342 341 340 339 338 338 337 335 338 342 8 53 301 324 323 331 341 0 349 351 17 35 11 62 101 89 42 18 330 320 358 311 23 310 341 339 322 349 353
339 343 343 342 341 339 338 338 338 338 336 335 335 334 333 331 88 345 327 334 331 326 263 256 274 118 65 44 2 349 96 348 31 9 334 310 324 322 352 16 15 317 308 320 328
327 335 336 336 335 335 335 335 336 335 334 335 334 333 324 274 146 305 317 339 336 346 6 10 27 52 99 112 336 67 25 13 304 322 338 308 306 332 28 310 319 319 328 322 338
301 321 329 330 328 329 331 332 331 330 332 332 331 336 351 51 92 277 338 350 5 23 39 18 31 56 95 53 64 85 313 325 309 315 331 285 281 254 19 321 337 357 8 12 5
280 303 321 328 327 325 327 329 329 327 326 329 333 336 0 79 299 16 358 358 17 27 24 36 21 323 98 57 71 302 296 287 289 323 334 352 288 103 344 334 4 8 2 351 356
258 283 308 323 326 326 325 325 324 323 319 321 338 344 42 137 323 333 333 348 19 38 49 17 353 48 188 85 30 348 351 2 239 346 15 329 37 61 329 3 5 354 344 339 340
241 260 291 313 321 322 322 322 323 322 315 317 332 356 114 300 283 1 1 48 51 28 77 353 1 25 55 267 68 24 51 22 336 22 358 5 298 10 357 13 354 347 343 344 341
233 240 281 308 317 319 320 319 313 311 307 300 12 57 80 312 42 300 55 351 318 2 6 1 46 29 1 56 31 7 63 339 327 20 1 38 301 335 12 11 356 346 339 340 334
263 236 264 302 313 318 322 317 302 328 306 267 269 54 299 151 315 339 299 42 358 313 11 41 47 61 4 59 186 236 26 275 245 312 8 303 291 2 15 358 352 348 349 338 334
232 229 250 290 308 320 347 4 20 339 32 208 262 281 23 303 76 298 287 16 337 36 43 342 59 116 277 196 178 212 238 262 253 282 322 281 17 350 354 350 344 348 342 347 337
220 214 228 278 307 319 64 81 79 278 311 301 280 291 253 95 38 298 55 42 36 354 15 15 110 223 242 291 245 253 353 312 295 235 288 323 295 318 359 348 357 341 338 341 335
207 189 209 272 313 359 74 139 57 15 249 275 239 237 201 123 70 223 31 280 184 326 23 172 244 204 44 321 357 232 157 239 227 317 174 319 312 338 349 341 356 0 335 352 345
188 177 193 259 341 232 35 178 52 57 62 205 239 256 155 161 276 225 51 128 329 129 347 233 288 73 338 245 73 295 187 155 307 326 293 35 300 324 334 360 8 360 1 11 354
180 176 181 166 168 149 164 134 77 59 355 149 159 153 155 197 137 212 3 77 141 301 63 254 162 39 301 198 192 243 221 219 194 259 321 313 17 276 328 358 352 1 11 12 358
178 171 157 144 91 177 142 91 62 46 259 161 128 183 157 208 210 112 36 45 148 44 203 245 311 182 227 295 214 286 328 49 81 245 282 255 127 304 336 304 333 356 14 16 4
171 165 155 142 202 156 128 61 47 148 346 226 195 170 206 184 177 190 203 73 147 84 342 357 245 289 160 333 355 24 32 10 352 4 233 208 38 232 279 288 251 335 352 351 9
158 149 146 164 132 128 70 58 131 239 211 182 134 137 209 166 194 182 133 174 238 132 109 134 322 187 196 168 216 310 128 134 252 303 285 271 259 263 234 314 207 355 6 346 348
134 122 135 174 135 89 83 94 207 199 174 154 76 134 287 258 170 141 190 194 183 163 166 158 268 352 195 200 149 270 51 136 180 152 285 232 271 313 138 288 61 53 49 19 356
134 133 184 143 126 80 84 233 213 198 144 125 157 155 185 234 169 163 195 237 182 161 105 161 315 288 272 93 320 139 176 81 9 348 288 277 237 240 204 228 281 51 44 37 8
111 131 142 122 97 69 181 225 211 222 183 149 180 151 190 189 185 191 192 264 174 157 98 121 127 273 356 221 202 44 94 92 136 158 254 301 263 219 200 174 194 144 109 72 30
139 138 149 123 125 198 179 203 204 170 143 167 145 136 170 167 177 205 194 205 171 149 156 139 149 248 218 308 252 204 158 143 132 264 238 274 273 208 176 162 167 185 129 117 104
122 119 124 123 166 211 268 254 236 150 191 173 194 196 186 173 149 174 158 80 157 138 157 170 323 13 344 353 337 240 189 160 129 93 229 170 258 125 144 159 184 170 182 132 109
122 136 142 201 191 154 155 204 214 250 182 164 169 135 117 142 90 174 144 183 131 119 132 116 159 183 190 207 186 240 206 183 159 154 240 233 237 210 205 190 192 196 165 140 115
146 185 178 174 216 193 183 165 158 171 202 204 212 193 160 151 132 181 146 124 60 163 149 145 199 185 246 244 245 242 232 213 202 206 193 262 224 226 208 200 187 180 176 156 160
147 154 136 158 145 177 197 198 181 186 153 211 175 185 178 158 185 189 143 179 184 171 160 150 254 69 299 298 259 263 242 235 234 225 251 254 264 226 213 144 165 186 177 177 178
154 120 134 155 155 176 200 197 188 144 229 181 172 133 184 200 163 177 129 158 157 150 168 151 129 87 268 345 332 294 232 215 214 196 210 219 232 168 195 192 187 184 183 180 176